Date String (YYYY-MM-DD hh:mm:ss) UTC,Instrument flags,absolute air pressure of the measurement (hPa),sample flow rate (lpm),inlet stack bypass flow (lpm),air temperature of the measurement (°C),ambient temperature measured by the external sensor (°C),aerosol sample conditioner tube jacket temperature (°C),OPC LED temperature (°C),internal box temperature (°C),relative humidity of the measurement (%),span deviation,mass concentration of particles derived from Lorenz-Mie calculation of OPC scattering (μg/m³),mass concentration of particles derived from Lorenz-Mie calculation of OPC scattering (μg/m³),mass concentration of particles derived from Lorenz-Mie calculation of OPC scattering (μg/m³)
DateTimeUTC,F1_M11,P_M11,Q1_M11,Q2_M11,T1_M11,T2_M11,T3_M11,T4_M11,T5_M11,U1_M11,ZSPAN_M11,X0_M11,X2_M11,X1_M11
2023-08-07 00:00:00,SystemResetWarning,0837.0,5.00,000.00,029.3,027.7,000.0,037.9,031.0,32.4,0000.9,0013.93,0008.91,0008.26
2023-08-07 00:01:00,SystemResetWarning,0836.9,5.00,000.00,029.3,027.8,000.0,037.9,031.0,32.3,0001.0,0013.63,0008.90,0008.25
2023-08-07 00:02:00,SystemResetWarning,0836.7,5.00,000.00,029.4,028.0,000.0,037.9,031.0,32.5,0000.5,0013.44,0008.91,0008.26
2023-08-07 00:03:00,SystemResetWarning,0836.8,5.00,000.00,029.4,028.1,000.0,037.9,031.1,32.4,-000.1,0013.32,0008.86,0008.24
2023-08-07 00:04:00,SystemResetWarning,0836.9,5.01,000.00,029.4,028.2,000.0,038.0,031.1,32.5,-000.2,0013.19,0008.80,0008.22
2023-08-07 00:05:00,SystemResetWarning,0837.0,5.00,000.00,029.5,028.3,000.0,038.0,031.1,32.6,0000.0,0012.50,0008.74,0008.18
2023-08-07 00:06:00,SystemResetWarning,0837.2,4.99,000.00,029.5,028.3,000.0,038.0,031.2,32.7,-000.0,0012.25,0008.67,0008.14
2023-08-07 00:07:00,SystemResetWarning,0837.2,4.99,000.00,029.5,028.4,000.0,038.0,031.2,32.8,-000.2,0012.43,0008.66,0008.11
2023-08-07 00:08:00,SystemResetWarning,0837.2,5.01,000.00,029.6,028.5,000.0,038.0,031.3,32.4,-000.3,0012.77,0008.63,0008.07
2023-08-07 00:09:00,SystemResetWarning,0837.2,5.01,000.00,029.6,028.5,000.0,038.1,031.3,32.4,-000.7,0012.24,0008.55,0008.00
2023-08-07 00:10:00,SystemResetWarning,0837.2,5.00,000.00,029.6,028.6,000.0,038.1,031.3,32.2,-001.0,0012.18,0008.47,0007.93
2023-08-07 00:11:00,SystemResetWarning,0837.0,4.98,000.00,029.6,027.4,000.0,038.0,031.2,31.8,-001.1,0011.98,0008.38,0007.87
2023-08-07 00:12:00,SystemResetWarning,0837.0,5.00,000.00,029.6,025.8,000.0,037.9,031.0,31.8,-001.1,0011.79,0008.31,0007.81
2023-08-07 00:13:00,SystemResetWarning,0836.9,5.00,000.00,029.5,025.3,000.0,037.8,030.6,31.9,-001.0,0011.82,0008.19,0007.74
2023-08-07 00:14:00,SystemResetWarning,0836.8,5.01,000.00,029.3,025.5,000.0,037.8,030.5,32.7,-000.4,0011.92,0008.17,0007.71
2023-08-07 00:15:00,SystemResetWarning,0836.9,5.01,000.00,029.3,025.9,000.0,037.9,030.6,33.0,-000.3,0011.61,0008.17,0007.69
2023-08-07 00:16:00,SystemResetWarning,0837.0,5.00,000.00,029.3,026.3,000.0,037.9,030.7,33.1,-000.1,0011.57,0008.15,0007.67
2023-08-07 00:17:00,SystemResetWarning,0836.9,5.00,000.00,029.3,026.7,000.0,037.9,030.8,33.4,0000.1,0011.58,0008.14,0007.64
2023-08-07 00:18:00,SystemResetWarning,0837.0,5.01,000.00,029.3,027.0,000.0,037.9,030.8,33.7,0000.4,0011.96,0008.10,0007.59
2023-08-07 00:19:00,SystemResetWarning,0836.9,5.00,000.00,029.3,027.3,000.0,037.9,030.9,33.5,0000.3,0011.69,0008.05,0007.56
2023-08-07 00:20:00,SystemResetWarning,0837.0,5.00,000.00,029.3,027.5,000.0,037.9,030.9,33.6,0000.5,0011.78,0008.02,0007.52
2023-08-07 00:21:00,SystemResetWarning,0836.9,5.00,000.00,029.3,027.7,000.0,037.9,031.0,33.3,0000.8,0011.77,0008.00,0007.50
2023-08-07 00:22:00,SystemResetWarning,0837.0,5.00,000.00,029.4,027.8,000.0,037.9,031.0,33.2,0000.8,0011.85,0008.03,0007.47
2023-08-07 00:23:00,SystemResetWarning,0837.0,5.00,000.00,029.4,028.0,000.0,037.9,031.1,33.4,0000.6,0011.98,0008.04,0007.45
2023-08-07 00:24:00,SystemResetWarning,0837.2,5.00,000.00,029.4,028.1,000.0,038.0,031.1,33.7,0000.7,0012.03,0008.04,0007.44
2023-08-07 00:25:00,SystemResetWarning,0837.2,4.99,000.00,029.4,028.2,000.0,038.0,031.1,33.4,0000.7,0011.83,0008.01,0007.42
2023-08-07 00:26:00,SystemResetWarning,0837.2,5.00,000.00,029.5,028.3,000.0,038.0,031.1,33.3,0000.5,0012.18,0007.97,0007.38
2023-08-07 00:27:00,SystemResetWarning,0837.2,4.99,000.00,029.5,028.3,000.0,038.0,031.2,33.0,0000.1,0012.65,0007.99,0007.38
2023-08-07 00:28:00,SystemResetWarning,0837.0,5.00,000.00,029.5,028.4,000.0,038.0,031.2,32.6,-000.2,0012.92,0007.97,0007.39
2023-08-07 00:29:00,SystemResetWarning,0836.9,5.01,000.00,029.5,028.4,000.0,038.1,031.3,32.4,-000.6,0012.52,0007.97,0007.40
2023-08-07 00:30:00,SystemResetWarning,0837.0,5.01,000.00,029.6,028.5,000.0,038.1,031.3,32.3,-000.6,0012.33,0007.95,0007.41
2023-08-07 00:31:00,SystemResetWarning,0837.1,5.00,000.00,029.6,028.5,000.0,038.1,031.3,32.2,-000.5,0012.17,0007.94,0007.43
2023-08-07 00:32:00,SystemResetWarning,0837.2,4.99,000.00,029.6,027.9,000.0,038.1,031.2,32.1,-000.6,0012.14,0007.96,0007.45
2023-08-07 00:33:00,SystemResetWarning,0837.2,5.00,000.00,029.6,026.1,000.0,037.9,031.0,32.1,-000.2,0012.22,0008.00,0007.48
2023-08-07 00:34:00,SystemResetWarning,0837.2,5.01,000.00,029.5,025.4,000.0,037.8,030.8,32.2,0000.0,0012.17,0007.99,0007.50
2023-08-07 00:35:00,SystemResetWarning,0837.2,5.00,000.00,029.4,025.4,000.0,037.8,030.6,32.3,-000.0,0011.98,0008.02,0007.51
2023-08-07 00:36:00,SystemResetWarning,0837.2,5.00,000.00,029.3,025.8,000.0,037.9,030.6,32.2,-000.3,0012.20,0008.09,0007.53
2023-08-07 00:37:00,SystemResetWarning,0837.2,5.01,000.00,029.3,026.1,000.0,037.9,030.6,32.2,-000.1,0011.94,0008.14,0007.58
2023-08-07 00:38:00,SystemResetWarning,0837.2,5.00,000.00,029.3,026.5,000.0,037.9,030.7,32.1,-000.3,0011.67,0008.16,0007.59
2023-08-07 00:39:00,SystemResetWarning,0837.0,5.01,000.00,029.3,026.9,000.0,037.9,030.8,32.8,-000.5,0011.36,0008.21,0007.61
2023-08-07 00:40:00,SystemResetWarning,0836.7,5.00,000.00,029.3,027.2,000.0,037.9,030.9,33.2,-000.8,0011.38,0008.24,0007.63
2023-08-07 00:41:00,SystemResetWarning,0836.4,5.00,000.00,029.3,027.4,000.0,037.9,030.9,33.8,-001.2,0011.72,0008.31,0007.67
2023-08-07 00:42:00,SystemResetWarning,0836.2,5.00,000.00,029.3,027.6,000.0,037.9,031.0,34.6,-001.8,0012.22,0008.37,0007.69
2023-08-07 00:43:00,SystemResetWarning,0836.1,5.01,000.00,029.3,027.8,000.0,037.9,031.0,34.5,-001.7,0012.26,0008.40,0007.70
2023-08-07 00:44:00,SystemResetWarning,0836.2,5.00,000.00,029.4,027.9,000.0,037.9,031.0,34.5,-001.9,0012.41,0008.40,0007.70
2023-08-07 00:45:00,SystemResetWarning,0836.4,4.99,000.00,029.4,028.0,000.0,038.0,031.1,34.6,-002.4,0012.52,0008.42,0007.72
2023-08-07 00:46:00,SystemResetWarning,0836.5,4.98,000.00,029.4,028.1,000.0,038.0,031.1,35.0,-002.7,0012.58,0008.44,0007.75
2023-08-07 00:47:00,SystemResetWarning,0836.6,5.02,000.00,029.5,028.2,000.0,038.0,031.2,35.5,-002.7,0012.56,0008.44,0007.76
2023-08-07 00:48:00,SystemResetWarning,0836.8,5.00,000.00,029.8,028.3,000.0,038.0,031.3,34.8,-002.9,0012.59,0008.44,0007.76
2023-08-07 00:49:00,SystemResetWarning,0836.8,4.98,000.00,030.0,028.4,000.0,038.0,031.4,34.1,-002.7,0012.57,0008.45,0007.77
2023-08-07 00:50:00,SystemResetWarning,0836.8,5.01,000.00,030.2,028.4,000.0,038.1,031.4,33.9,-002.9,0012.77,0008.45,0007.78
2023-08-07 00:51:00,SystemResetWarning,0836.8,5.01,000.00,030.3,028.5,000.0,038.2,031.4,33.9,-002.7,0012.80,0008.44,0007.78
2023-08-07 00:52:00,SystemResetWarning,0836.8,5.01,000.00,030.3,028.5,000.0,038.3,031.5,33.8,-002.4,0013.01,0008.42,0007.76
2023-08-07 00:53:00,SystemResetWarning,0836.9,5.00,000.00,030.4,028.6,000.0,038.3,031.5,33.3,-001.8,0012.55,0008.40,0007.76
2023-08-07 00:54:00,SystemResetWarning,0837.0,4.98,000.00,030.4,027.7,000.0,038.3,031.4,33.2,-001.8,0012.73,0008.39,0007.76
2023-08-07 00:55:00,SystemResetWarning,0837.0,5.02,000.00,030.4,026.0,000.0,038.2,031.1,33.0,-002.3,0012.83,0008.36,0007.76
2023-08-07 00:56:00,SystemResetWarning,0837.1,5.01,000.00,030.3,025.4,000.0,038.2,030.9,33.3,-002.0,0012.63,0008.34,0007.76
2023-08-07 00:57:00,SystemResetWarning,0837.2,5.00,000.00,030.2,025.5,000.0,038.2,030.6,33.9,-001.9,0012.60,0008.33,0007.75
2023-08-07 00:58:00,SystemResetWarning,0837.2,5.00,000.00,030.1,025.8,000.0,038.3,030.7,34.4,-001.3,0012.62,0008.30,0007.75
2023-08-07 00:59:00,SystemResetWarning,0837.2,5.00,000.00,030.0,026.2,000.0,038.3,030.8,34.8,-000.9,0012.73,0008.29,0007.74
